Regional Weather Roundup
Issued by NWS

Home | Current Version | Previous Version | Text Only | Print | Product List | Glossary Off
Versions: 1 2 3 4 5 6 7 8 9 10 11 12 13 14 15 16 17 18 19 20 21 22 23 24 25 26 27 28 29 30 31 32 33 34 35 36 37 38 39 40 41 42 43 44 45 46 47 48 49 50

117
ASUS43 KOAX 171502
RWRNE

WEATHER ROUNDUP FOR NEBRASKA
NATIONAL WEATHER SERVICE OMAHA NE
1000 AM CDT THU AUG 17 2017

NOTES: SATELLITE DATA IS BEING USED TO AUGMENT CLOUD COVER ABOVE
       12000 FEET.
       "FAIR" INDICATES FEW OR NO CLOUDS BELOW 12,000 FEET WITH NO
       SIGNIFICANT WEATHER AND/OR OBSTRUCTIONS TO VISIBILITY.


NEZ001>004-019>022-054>056-171600-
NEBRASKA PANHANDLE

CITY           SKY/WX    TMP DP  RH WIND       PRES   REMARKS
SCOTTSBLUFF    SUNNY     66  55  67 E7        30.05F
ALLIANCE       SUNNY     70  54  56 S10G23    30.05F
CHADRON        SUNNY     68  53  58 W3        29.99F
GORDON         FAIR      69  56  62 SW6       30.03S
KIMBALL        SUNNY     67  55  63 SW7       30.12F
SIDNEY         SUNNY     68  53  58 SW13      30.12S
$$

NEZ057>060-069>072-079>082-171600-
SOUTHWEST NEBRASKA

CITY           SKY/WX    TMP DP  RH WIND       PRES   REMARKS
NORTH PLATTE   SUNNY     67  59  75 W7        30.07F
IMPERIAL       SUNNY     70  58  65 SW6       30.10F
LEXINGTON      SUNNY     68  60  75 W5        30.06S
MCCOOK         SUNNY     66  60  81 W8        30.09S
OGALLALA       SUNNY     65  60  82 CALM      30.09S
$$

NEZ005>010-023>029-035>040-094-171600-
NORTH CENTRAL NEBRASKA

CITY           SKY/WX    TMP DP  RH WIND       PRES   REMARKS
VALENTINE      SUNNY     67  54  63 SW7       30.01S
AINSWORTH      SUNNY     69  58  70 W3        30.02S
BROKEN BOW     SUNNY     69  56  62 W6        30.04S
O`NEILL        SUNNY     67  56  67 W6        30.00S
ORD            SUNNY     69  52  54 W7        30.01R
THEDFORD       SUNNY     72  57  58 SW8       30.05S
$$

NEZ041-046>049-061>064-073>077-083>087-171600-
SOUTH CENTRAL NEBRASKA

CITY           SKY/WX    TMP DP  RH WIND       PRES   REMARKS
GRAND ISLAND   SUNNY     69  58  67 W10       30.02S
AURORA         SUNNY     66  59  77 W8        30.01S
HASTINGS       SUNNY     69  56  62 W9        30.04S
HEBRON         SUNNY     71  60  70 NW8       30.01S
HOLDREGE       SUNNY     70  56  61 W6        30.06R
KEARNEY        SUNNY     71  57  61 W5        30.04S
YORK           SUNNY     66  61  82 W12       30.01R
$$

NEZ011>018-030>034-042>045-171600-
NORTHEAST NEBRASKA

CITY           SKY/WX    TMP DP  RH WIND       PRES   REMARKS
NORFOLK        SUNNY     68  57  68 W12       29.95R
ALBION         SUNNY     70  57  62 NW7       30.00R
BLAIR          RAIN      69  61  76 NW12G20   29.92S
COLUMBUS       SUNNY     68  58  70 W13       29.98R
FREMONT        SUNNY     69  60  73 W13       29.94S
TEKAMAH        SUNNY     71  60  68 NW15G21   29.91R
WAYNE          SUNNY     69  62  79 W13G18    29.94R
$$

NEZ050>053-065>068-078-088>093-171600-
SOUTHEAST NEBRASKA

CITY           SKY/WX    TMP DP  RH WIND       PRES   REMARKS
LINCOLN        SUNNY     72  58  61 NW14      29.97R
OMAHA EPPLEY   SUNNY     72  60  66 NW16      29.91R
BEATRICE       SUNNY     70  61  73 W10       29.99R
FALLS CITY     SUNNY     72  61  68 W14       29.94R
NEBRASKA CITY  SUNNY     72  62  71 NW13G20   29.94R
PLATTSMOUTH    SUNNY     70  60  71 NW16      29.92S
$$

NEZ044-045-051>053-067-171600-
OMAHA AREA

CITY           SKY/WX    TMP DP  RH WIND       PRES   REMARKS
OMAHA EPPLEY   SUNNY     72  60  66 NW16      29.91R
BLAIR          RAIN      69  61  76 NW12G20   29.92S
FREMONT        SUNNY     69  60  73 W13       29.94S
MILLARD        SUNNY     73  61  65 NW14G20   29.93R
OFFUTT AFB     SUNNY     73  59  61 NW15      29.91R
PLATTSMOUTH    SUNNY     70  60  71 NW16      29.92S
WAHOO          FAIR      70  60  70 NW14      29.95R
$$




USA.gov is the U.S. government's official web portal to all federal, state and local government web resources and services.